H1 CPF 2 NER 2024 8 8 9 221 01 glonass145 H2 2213001 9145 54031 2024 8 8 0 0 0 2024 8 11 23 45 0 900 1 1 0 0 0 1 H9 10 0 60530 0.00000 0 20333503.383 12539188.002 8986547.194 10 0 60530 900.00000 0 19167558.104 11984263.296 11848784.167 10 0 60530 1800.00000 0 17638691.802 11425310.104 14481248.486 10 0 60530 2700.00000 0 15773044.487 10916752.979 16832878.019 10 0 60530 3600.00000 0 13608667.659 10508030.859 18858043.184 10 0 60530 4500.00000 0 11194151.729 10241374.400 20517428.915 10 0 60530 5400.00000 0 8586823.856 10149900.460 21778795.567 10 0 60530 6300.00000 0 5850589.962 10256103.983 22617604.457 10 0 60530 7200.00000 0 3053509.408 10570811.039 23017496.163 10 0 60530 8100.00000 0 265201.805 11092637.538 22970612.438 10 0 60530 9000.00000 0 -2445807.547 11807977.166 22477755.334 10 0 60530 9900.00000 0 -5014694.435 12691520.074 21548380.072 10 0 60530 10800.00000 0 -7382787.345 13707281.649 20200421.117 10 0 60530 11700.00000 0 -9499762.742 14810099.382 18459953.976 10 0 60530 12600.00000 0 -11325493.144 15947535.966 16360698.308 10 0 60530 13500.00000 0 -12831471.335 17062109.514 13943371.000 10 0 60530 14400.00000 0 -14001751.527 18093757.605 11254900.870 10 0 60530 15300.00000 0 -14833368.301 18982431.527 8347519.609 10 0 60530 16200.00000 0 -15336216.056 19670711.143 5277746.283 10 0 60530 17100.00000 0 -15532394.476 20106329.439 2105285.112 10 0 60530 18000.00000 0 -15455048.129 20244499.228 -1108141.608 10 0 60530 18900.00000 0 -15146749.980 20049942.609 -4300002.040 10 0 60530 19800.00000 0 -14657498.042 19498536.240 -7408180.338 10 0 60530 20700.00000 0 -14042411.034 18578501.711 -10372194.218 10 0 60530 21600.00000 0 -13359221.676 17291089.760 -13134379.788 10 0 60530 22500.00000 0 -12665674.875 15650728.574 -15641019.685 10 0 60530 23400.00000 0 -12016941.875 13684629.337 -17843391.822 10 0 60530 24300.00000 0 -11463160.515 11431865.136 -19698718.000 10 0 60530 25200.00000 0 -11047206.040 8941961.643 -21170993.905 10 0 60530 26100.00000 0 -10802786.784 6273058.423 -22231684.626 10 0 60530 27000.00000 0 -10752944.943 3489717.580 -22860272.760 10 0 60530 27900.00000 0 -10909025.289 660470.936 -23044649.184 10 0 60530 28800.00000 0 -11270154.719 -2144792.390 -22781339.729 10 0 60530 29700.00000 0 -11823253.954 -4857489.891 -22075564.162 10 0 60530 30600.00000 0 -12543580.305 -7412951.086 -20941127.021 10 0 60530 31500.00000 0 -13395778.180 -9752857.147 -19400142.961 10 0 60530 32400.00000 0 -14335392.783 -11827414.571 -17482602.284 10 0 60530 33300.00000 0 -15310783.177 -13597173.908 -15225785.228 10 0 60530 34200.00000 0 -16265354.149 -15034419.309 -12673536.362 10 0 60530 35100.00000 0 -17140013.098 -16124072.634 -9875413.102 10 0 60530 36000.00000 0 -17875748.685 -16864075.935 -6885724.627 10 0 60530 36900.00000 0 -18416222.888 -17265237.851 -3762479.714 10 0 60530 37800.00000 0 -18710267.412 -17350551.720 -566263.711 10 0 60530 38700.00000 0 -18714179.431 -17154015.263 2640933.738 10 0 60530 39600.00000 0 -18393720.032 -16719002.432 5796917.491 10 0 60530 40500.00000 0 -17725731.043 -16096256.625 8840489.158 10 0 60530 41400.00000 0 -16699301.878 -15341590.182 11712629.627 10 0 60530 42300.00000 0 -15316436.852 -14513387.281 14357639.098 10 0 60530 43200.00000 0 -13592194.130 -13670015.381 16724212.845 10 0 60530 44100.00000 0 -11554289.524 -12867254.038 18766432.262 10 0 60530 45000.00000 0 -9242180.513 -12155849.071 20444652.348 10 0 60530 45900.00000 0 -6705667.403 -11579294.687 21726268.941 10 0 60530 46800.00000 0 -4003068.412 -11171936.604 22586351.246 10 0 60530 47700.00000 0 -1199043.189 -10957475.802 23008127.645 10 0 60530 48600.00000 0 1637846.294 -10947935.878 22983315.519 10 0 60530 49500.00000 0 4437737.558 -11143137.705 22512288.552 10 0 60530 50400.00000 0 7132125.347 -11530704.011 21604077.845 10 0 60530 51300.00000 0 9656465.944 -12086594.436 20276206.227 10 0 60530 52200.00000 0 11952620.697 -12776149.411 18554358.057 10 0 60530 53100.00000 0 13971037.634 -13555599.815 16471889.990 10 0 60530 54000.00000 0 15672580.656 -14373979.608 14069191.207 10 0 60530 54900.00000 0 17029930.184 -15175361.399 11392904.617 10 0 60530 55800.00000 0 18028496.772 -15901320.878 8495023.513 10 0 60530 56700.00000 0 18666809.525 -16493525.955 5431880.879 10 0 60530 57600.00000 0 18956363.242 -16896340.715 2263050.950 10 0 60530 58500.00000 0 18920931.027 -17059333.254 -949815.192 10 0 60530 59400.00000 0 18595371.956 -16939580.257 -4144196.674 10 0 60530 60300.00000 0 18023984.844 -16503669.554 -7257928.116 10 0 60530 61200.00000 0 17258478.625 -15729314.718 -10230418.197 10 0 60530 62100.00000 0 16355646.188 -14606512.203 -13003836.718 10 0 60530 63000.00000 0 15374841.078 -13138191.098 -15524246.133 10 0 60530 63900.00000 0 14375364.719 -11340327.204 -17742654.780 10 0 60530 64800.00000 0 13413875.359 -9241515.935 -19615970.940 10 0 60530 65700.00000 0 12541928.617 -6882021.472 -21107839.111 10 0 60530 66600.00000 0 11803753.615 -4312341.664 -22189342.515 10 0 60530 67500.00000 0 11234358.254 -1591348.420 -22839558.705 10 0 60530 68400.00000 0 10858042.954 1215919.105 -23045958.264 10 0 60530 69300.00000 0 10687384.686 4040716.865 -22804639.615 10 0 60530 70200.00000 0 10722733.139 6813211.861 -22120396.252 10 0 60530 71100.00000 0 10952239.242 9465143.540 -21006615.751 10 0 60530 72000.00000 0 11352413.933 11932420.857 -19485013.081 10 0 60530 72900.00000 0 11889192.852 14157548.115 -17585203.766 10 0 60530 73800.00000 0 12519461.535 16091779.871 -15344125.289 10 0 60530 74700.00000 0 13192976.476 17696916.554 -12805318.046 10 0 60530 75600.00000 0 13854600.909 18946667.404 -10018079.646 10 0 60530 76500.00000 0 14446761.002 19827525.237 -7036508.803 10 0 60530 77400.00000 0 14912018.971 20339117.911 -3918457.220 10 0 60530 78300.00000 0 15195654.606 20494023.047 -724409.594 10 0 60530 79200.00000 0 15248146.438 20317054.940 2483686.670 10 0 60530 80100.00000 0 15027447.884 19844054.603 5643619.423 10 0 60530 81000.00000 0 14500962.312 19120234.494 8694114.309 10 0 60530 81900.00000 0 13647133.526 18198148.021 11576018.715 10 0 60530 82800.00000 0 12456584.173 17135369.441 14233444.370 10 0 60530 83700.00000 0 10932753.494 15991981.741 16614846.731 10 0 60530 84600.00000 0 9092006.664 14827977.970 18674020.640 10 0 60530 85500.00000 0 6963209.880 13700684.882 20370993.315 10 0 60531 0.00000 0 4586787.777 12662316.825 21672797.792 10 0 60531 900.00000 0 2013299.582 11757761.588 22554112.815 10 0 60531 1800.00000 0 -698405.099 11022692.142 22997755.438 10 0 60531 2700.00000 0 -3483380.037 10482081.405 22995019.218 10 0 60531 3600.00000 0 -6273032.960 10149183.666 22545849.503 10 0 60531 4500.00000 0 -8997733.824 10025024.961 21658852.793 10 0 60531 5400.00000 0 -11589473.404 10098424.192 20351139.238 10 0 60531 6300.00000 0 -13984462.700 10346544.543 18648000.474 10 0 60531 7200.00000 0 -16125565.643 10735952.546 16582428.085 10 0 60531 8100.00000 0 -17964464.143 11224140.700 14194481.054 10 0 60531 9000.00000 0 -19463465.351 11761449.880 11530513.557 10 0 60531 9900.00000 0 -20596875.508 12293310.576 8642277.447 10 0 60531 10800.00000 0 -21351882.830 12762708.189 5585916.465 10 0 60531 11700.00000 0 -21728912.292 13112767.692 2420871.672 10 0 60531 12600.00000 0 -21741437.509 13289347.515 -791280.212 10 0 60531 13500.00000 0 -21415257.877 13243531.808 -3988032.340 10 0 60531 14400.00000 0 -20787271.967 12933914.308 -7107172.739 10 0 60531 15300.00000 0 -19903799.637 12328575.796 -10088003.832 10 0 60531 16200.00000 0 -18818524.610 11406670.149 -12872531.688 10 0 60531 17100.00000 0 -17590145.349 10159550.723 -15406600.908 10 0 60531 18000.00000 0 -16279834.386 8591388.438 -17640952.264 10 0 60531 18900.00000 0 -14948614.115 6719254.652 -19532182.176 10 0 60531 19800.00000 0 -13654760.258 4572664.606 -21043585.227 10 0 60531 20700.00000 0 -12451342.660 2192600.080 -22145863.635 10 0 60531 21600.00000 0 -11384006.791 -369948.273 -22817690.390 10 0 60531 22500.00000 0 -10489088.743 -3055858.363 -23046115.863 10 0 60531 23400.00000 0 -9792142.166 -5800095.955 -22826810.808 10 0 60531 24300.00000 0 -9306937.902 -8534183.819 -22164141.833 10 0 60531 25200.00000 0 -9034977.126 -11188818.575 -21071078.622 10 0 60531 26100.00000 0 -8965537.155 -13696527.108 -19568935.239 10 0 60531 27000.00000 0 -9076246.768 -15994252.925 -17686950.939 10 0 60531 27900.00000 0 -9334165.756 -18025765.911 -15461718.762 10 0 60531 28800.00000 0 -9697322.398 -19743796.223 -12936473.056 10 0 60531 29700.00000 0 -10116643.414 -21111804.589 -10160249.623 10 0 60531 30600.00000 0 -10538194.704 -22105316.492 -7186934.638 10 0 60531 31500.00000 0 -10905638.045 -22712765.557 -4074220.609 10 0 60531 32400.00000 0 -11162799.915 -22935811.983 -882489.422 10 0 60531 33300.00000 0 -11256244.039 -22789123.830 2326355.969 10 0 60531 34200.00000 0 -11137738.946 -22299631.114 5490088.666 10 0 60531 35100.00000 0 -10766516.332 -21505284.783 8547360.656 10 0 60531 36000.00000 0 -10111224.719 -20453373.093 11438888.190 10 0 60531 36900.00000 0 -9151495.632 -19198466.375 14108596.907 10 0 60531 37800.00000 0 -7879055.759 -17800076.496 16504704.790 10 0 60531 38700.00000 0 -6298337.407 -16320129.107 18580722.361 10 0 60531 39600.00000 0 -4426560.502 -14820354.357 20296351.125 10 0 60531 40500.00000 0 -2293281.276 -13359705.033 21618263.329 10 0 60531 41400.00000 0 60575.141 -11991909.732 22520748.325 10 0 60531 42300.00000 0 2584159.578 -10763263.046 22986213.324 10 0 60531 43200.00000 0 5218562.745 -9710744.778 23005528.943 10 0 60531 44100.00000 0 7899022.422 -8860546.561 22578212.747 10 0 60531 45000.00000 0 10557383.717 -8227067.375 21712446.857 10 0 60531 45900.00000 0 13124711.490 -7812419.974 20424928.659 10 0 60531 46800.00000 0 15533947.418 -7606469.003 18740556.657 10 0 60531 47700.00000 0 17722501.858 -7587399.370 16691956.632 10 0 60531 48600.00000 0 19634672.941 -7722791.199 14318856.280 10 0 60531 49500.00000 0 21223792.129 -7971156.231 11667319.586 10 0 60531 50400.00000 0 22454006.397 -8283870.914 8788855.094 10 0 60531 51300.00000 0 23301622.200 -8607424.337 5739415.028 10 0 60531 52200.00000 0 23755954.563 -8885885.523 2578304.621 10 0 60531 53100.00000 0 23819645.398 -9063484.877 -632976.751 10 0 60531 54000.00000 0 23508437.616 -9087199.484 -3831939.476 10 0 60531 54900.00000 0 22850414.710 -8909231.511 -6956328.299 10 0 60531 55800.00000 0 21884738.311 -8489273.363 -9945342.694 10 0 60531 56700.00000 0 20659937.565 -7796462.353 -12740828.193 10 0 60531 57600.00000 0 19231823.312 -6810940.833 -15288414.526 10 0 60531 58500.00000 0 17661115.836 -5524954.709 -17538577.647 10 0 60531 59400.00000 0 16010886.948 -3943442.966 -19447604.560 10 0 60531 60300.00000 0 14343924.703 -2084092.533 -20978442.087 10 0 60531 61200.00000 0 12720131.937 23144.481 -22101413.268 10 0 60531 62100.00000 0 11194067.910 2337051.458 -22794788.008 10 0 60531 63000.00000 0 9812735.833 4806624.460 -23045197.603 10 0 60531 63900.00000 0 8613708.345 7372964.597 -22847885.883 10 0 60531 64800.00000 0 7623668.372 9971507.122 -22206792.940 10 0 60531 65700.00000 0 6857425.190 12534494.873 -21134470.538 10 0 60531 66600.00000 0 6317445.437 14993593.671 -19651831.415 10 0 60531 67500.00000 0 5993917.171 17282541.530 -17787737.728 10 0 60531 68400.00000 0 5865342.817 19339722.211 -15578436.844 10 0 60531 69300.00000 0 5899634.764 21110556.806 -13066855.415 10 0 60531 70200.00000 0 6055666.394 22549614.604 -10301765.398 10 0 60531 71100.00000 0 6285212.393 23622356.212 -7336837.987 10 0 60531 72000.00000 0 6535195.901 24306437.016 -4229603.674 10 0 60531 72900.00000 0 6750147.344 24592517.463 -1040338.438 10 0 60531 73800.00000 0 6874770.776 24484546.966 2169102.533 10 0 60531 74700.00000 0 6856509.270 23999510.336 5336481.036 10 0 60531 75600.00000 0 6648000.923 23166648.048 8400378.858 10 0 60531 76500.00000 0 6209321.562 22026183.283 11301384.494 10 0 60531 77400.00000 0 5509919.226 20627609.394 13983240.705 10 0 60531 78300.00000 0 4530158.429 19027609.572 16393930.989 10 0 60531 79200.00000 0 3262408.436 17287695.705 18486684.265 10 0 60531 80100.00000 0 1711628.854 15471664.923 20220878.730 10 0 60531 81000.00000 0 -104573.352 13642979.782 21562827.795 10 0 60531 81900.00000 0 -2156419.307 11862180.993 22486433.331 10 0 60531 82800.00000 0 -4402948.003 10184440.227 22973693.812 10 0 60531 83700.00000 0 -6793480.912 8657354.575 23015057.683 10 0 60531 84600.00000 0 -9269502.256 7319074.215 22609614.981 10 0 60531 85500.00000 0 -11766878.330 6196841.090 21765123.144 10 0 60532 0.00000 0 -14218324.830 5305999.382 20497866.038 10 0 60532 900.00000 0 -16556022.026 4649518.579 18832347.347 10 0 60532 1800.00000 0 -18714266.458 4218050.092 16800825.122 10 0 60532 2700.00000 0 -20632053.511 3990513.441 14442693.265 10 0 60532 3600.00000 0 -22255479.910 3935188.495 11803722.648 10 0 60532 4500.00000 0 -23539866.885 4011267.097 8935175.291 10 0 60532 5400.00000 0 -24451514.458 4170798.395 5892808.497 10 0 60532 6300.00000 0 -24969012.825 4360945.159 2735788.186 10 0 60532 7200.00000 0 -25084055.199 4526454.869 -474467.079 10 0 60532 8100.00000 0 -24801717.565 4612239.943 -3675488.303 10 0 60532 9000.00000 0 -24140193.371 4565956.592 -6804980.205 10 0 60532 9900.00000 0 -23129994.383 4340471.694 -9802042.385 10 0 60532 10800.00000 0 -21812651.726 3896111.791 -12608362.685 10 0 60532 11700.00000 0 -20238972.334 3202597.684 -15169358.535 10 0 60532 12600.00000 0 -18466924.974 2240581.527 -17435243.292 10 0 60532 13500.00000 0 -16559245.466 1002720.492 -19361996.351 10 0 60532 14400.00000 0 -14580862.417 -505759.220 -20912218.096 10 0 60532 15300.00000 0 -12596251.948 -2267032.425 -22055853.199 10 0 60532 16200.00000 0 -10666832.502 -4251180.913 -22770768.767 10 0 60532 17100.00000 0 -8848508.579 -6417214.580 -23043176.787 10 0 60532 18000.00000 0 -7189465.579 -8714565.394 -22867893.472 10 0 60532 18900.00000 0 -5728306.998 -11084992.186 -22248431.295 10 0 60532 19800.00000 0 -4492610.491 -13464817.226 -21196922.643 10 0 60532 20700.00000 0 -3497961.664 -15787401.795 -19733877.186 10 0 60532 21600.00000 0 -2747504.288 -17985758.136 -17887778.042 10 0 60532 22500.00000 0 -2232024.036 -19995189.609 -15694524.792 10 0 60532 23400.00000 0 -1930560.578 -21755849.591 -13196734.195 10 0 60532 24300.00000 0 -1811520.820 -23215113.204 -10442912.119 10 0 60532 25200.00000 0 -1834245.237 -24329663.606 -7486512.545 10 0 60532 26100.00000 0 -1950960.338 -25067206.363 -4384901.771 10 0 60532 27000.00000 0 -2109034.207 -25407740.930 -1198247.722 10 0 60532 27900.00000 0 -2253439.445 -25344336.567 2011644.286 10 0 60532 28800.00000 0 -2329319.174 -24883380.830 5182526.790 10 0 60532 29700.00000 0 -2284547.534 -24044290.557 8252913.413 10 0 60532 30600.00000 0 -2072176.363 -22858697.727 11163266.910 10 0 60532 31500.00000 0 -1652664.576 -21369144.404 13857149.153 10 0 60532 32400.00000 0 -995795.848 -19627341.270 16282311.072 10 0 60532 33300.00000 0 -82203.290 -17692062.380 18391701.806 10 0 60532 34200.00000 0 1095563.804 -15626763.756 20144377.896 10 0 60532 35100.00000 0 2532476.977 -13497024.710 21506295.373 10 0 60532 36000.00000 0 4210994.379 -11367918.029 22450969.822 10 0 60532 36900.00000 0 6101558.212 -9301417.986 22959991.913 10 0 60532 37800.00000 0 8163604.844 -7353953.493 23023388.567 10 0 60532 38700.00000 0 10347047.207 -5574207.668 22639822.658 10 0 60532 39600.00000 0 12594169.416 -4001254.944 21816627.045 10 0 60532 40500.00000 0 14841856.242 -2663112.910 20569671.654 10 0 60532 41400.00000 0 17024065.885 -1575768.893 18923065.397 10 0 60532 42300.00000 0 19074443.924 -742721.725 16908697.748 10 0 60532 43200.00000 0 20928969.991 -155057.576 14565627.878 10 0 60532 44100.00000 0 22528526.841 207943.567 11939332.310 10 0 60532 45000.00000 0 23821284.152 377696.584 9080824.972 10 0 60532 45900.00000 0 24764796.770 394742.287 6045666.330 10 0 60532 46800.00000 0 25327728.694 306787.697 2892880.733 10 0 60532 47700.00000 0 25491129.652 166439.116 -316196.647 10 0 60532 48600.00000 0 25249209.866 28724.939 -3519120.257 10 0 60532 49500.00000 0 24609579.873 -51485.703 -6653557.766 10 0 60532 50400.00000 0 23592944.963 -22057.796 -9658511.924 10 0 60532 51300.00000 0 22232267.077 163951.670 -12475515.848 10 0 60532 52200.00000 0 20571429.632 546058.211 -15049777.492 10 0 60532 53100.00000 0 18663461.874 1154432.588 -17331250.223 10 0 60532 54000.00000 0 16568397.954 2008383.908 -19275608.222 10 0 60532 54900.00000 0 14350861.085 3115307.984 -20845107.574 10 0 60532 55800.00000 0 12077474.568 4470145.988 -22009316.483 10 0 60532 56700.00000 0 9814208.257 6055376.681 -22745700.900 10 0 60532 57600.00000 0 7623771.326 7841542.997 -23040054.877 10 0 60532 58500.00000 0 5563159.818 9788291.182 -22886768.076 10 0 60532 59400.00000 0 3681460.482 11845879.328 -22288926.067 10 0 60532 60300.00000 0 2018001.327 13957092.563 -21258242.217 10 0 60532 61200.00000 0 600924.600 16059485.212 -19814823.068 10 0 60532 62100.00000 0 -553759.986 18087856.787 -17986772.213 10 0 60532 63000.00000 0 -1442604.054 19976858.885 -15809640.527 10 0 60532 63900.00000 0 -2074615.280 21663624.726 -13325733.527 10 0 60532 64800.00000 0 -2470624.225 23090312.057 -10583289.213 10 0 60532 65700.00000 0 -2662151.411 24206453.679 -7635542.166 10 0 60532 66600.00000 0 -2689823.609 24971017.930 -4539691.939 10 0 60532 67500.00000 0 -2601407.067 25354093.262 -1355795.528 10 0 60532 68400.00000 0 -2449541.385 25338126.827 1854394.736 10 0 60532 69300.00000 0 -2289270.211 24918665.532 5028625.438 10 0 60532 70200.00000 0 -2175473.320 24104568.741 8105345.419 10 0 60532 71100.00000 0 -2160308.738 22917683.739 11024895.078 10 0 60532 72000.00000 0 -2290773.056 21391997.474 13730658.700 10 0 60532 72900.00000 0 -2606483.096 19572299.818 16170157.815 10 0 60532 73800.00000 0 -3137772.748 17512413.843 18296064.745 10 0 60532 74700.00000 0 -3904185.623 15273066.485 20067117.094 10 0 60532 75600.00000 0 -4913427.673 12919487.753 21448915.934 10 0 60532 76500.00000 0 -6160824.755 10518837.781 22414592.641 10 0 60532 77400.00000 0 -7629309.185 8137568.040 22945331.757 10 0 60532 78300.00000 0 -9289937.319 5838825.691 23030739.892 10 0 60532 79200.00000 0 -11102918.210 3680008.240 22669053.460 10 0 60532 80100.00000 0 -13019111.996 1710569.526 21867180.866 10 0 60532 81000.00000 0 -14981937.098 -29832.278 20640577.760 10 0 60532 81900.00000 0 -16929608.018 -1512768.034 19012956.960 10 0 60532 82800.00000 0 -18797611.382 -2721992.985 17015837.748 10 0 60532 83700.00000 0 -20521317.514 -3653884.555 14687942.302 10 0 60532 84600.00000 0 -22038618.646 -4317344.593 12074450.029 10 0 60532 85500.00000 0 -23292483.192 -4733170.561 9226123.599 10 0 60533 0.00000 0 -24233318.451 -4932922.563 6198323.456 10 0 60533 900.00000 0 -24821042.304 -4957334.640 3049928.184 10 0 60533 1800.00000 0 -25026774.689 -4854337.960 -157813.902 10 0 60533 2700.00000 0 -24834078.445 -4676780.796 -3362484.420 10 0 60533 3600.00000 0 -24239695.079 -4479942.633 -6501717.640 10 0 60533 4500.00000 0 -23253744.349 -4318949.088 -9514422.974 10 0 60533 5400.00000 0 -21899378.706 -4246198.467 -12341982.121 10 0 60533 6300.00000 0 -20211906.978 -4308910.273 -14929396.586 10 0 60533 7200.00000 0 -18237424.234 -4546900.627 -17226362.427 10 0 60533 8100.00000 0 -16031005.672 -4990679.752 -19188250.823 10 0 60533 9000.00000 0 -13654540.636 -5659952.725 -20776975.241 10 0 60533 9900.00000 0 -11174297.857 -6562587.354 -21961728.485 10 0 60533 10800.00000 0 -8658323.980 -7694093.096 -22719575.777 10 0 60533 11700.00000 0 -6173783.967 -9037633.219 -23035893.018 10 0 60533 12600.00000 0 -3784354.047 -10564569.850 -22904642.513 10 0 60533 13500.00000 0 -1547775.172 -12235519.214 -22328481.607 10 0 60533 14400.00000 0 486332.133 -14001872.997 -21318702.887 10 0 60533 15300.00000 0 2278301.836 -15807722.342 -19895007.686 10 0 60533 16200.00000 0 3799830.557 -17592104.220 -18085117.730 10 0 60533 17100.00000 0 5034902.933 -19291476.581 -15924232.692 10 0 60533 18000.00000 0 5980197.373 -20842319.096 -13454344.240 10 0 60533 18900.00000 0 6644957.141 -22183751.049 -10723419.841 10 0 60533 19800.00000 0 7050333.940 -23260057.355 -7784472.022 10 0 60533 20700.00000 0 7228233.080 -24023017.192 -4694530.960 10 0 60533 21600.00000 0 7219710.098 -24433937.996 -1513540.159 10 0 60533 22500.00000 0 7072987.391 -24465309.908 1696803.510 10 0 60533 23400.00000 0 6841175.206 -24102011.382 4874243.026 10 0 60533 24300.00000 0 6579793.647 -23342015.485 7957164.674 10 0 60533 25200.00000 0 6344200.560 -22196567.219 10885788.563 10 0 60533 26100.00000 0 6187034.037 -20689824.086 13603323.295 10 0 60533 27000.00000 0 6155777.523 -18857974.565 16057062.703 10 0 60533 27900.00000 0 6290550.369 -16747870.757 18199403.762 10 0 60533 28800.00000 0 6622217.101 -14415231.580 19988766.360 10 0 60533 29700.00000 0 7170895.435 -11922490.597 21390397.543 10 0 60533 30600.00000 0 7944926.361 -9336377.168 22377045.124 10 0 60533 31500.00000 0 8940350.476 -6725330.601 22929487.858 10 0 60533 32400.00000 0 10140913.646 -4156853.803 23036912.108 10 0 60533 33300.00000 0 11518603.162 -1694915.440 22697127.630 10 0 60533 34200.00000 0 13034693.397 602492.293 21916617.949 10 0 60533 35100.00000 0 14641258.733 2685539.547 20710423.809 10 0 60533 36000.00000 0 16283091.877 4514398.028 19101861.127 10 0 60533 36900.00000 0 17899948.450 6060657.419 17122078.029 10 0 60533 37800.00000 0 19429024.760 7308260.354 14809458.552 10 0 60533 38700.00000 0 20807565.405 8253917.218 12208883.666 10 0 60533 39600.00000 0 21975491.376 8906983.768 9370863.252 10 0 60533 40500.00000 0 22877937.951 9288807.162 6350555.423 10 0 60533 41400.00000 0 23467594.992 9431568.485 3206692.096 10 0 60533 42300.00000 0 23706750.221 9376671.279 431.996 10 0 60533 43200.00000 0 23568948.320 9172745.056 -3205836.052 10 0 60533 44100.00000 0 23040194.875 8873349.294 -6349715.422 10 0 60533 45000.00000 0 22119653.408 8534476.272 -9370024.724 10 0 60533 45900.00000 0 20819805.376 8211959.798 -12207996.728 10 0 60533 46800.00000 0 19166065.807 7958900.784 -14808428.878 10 0 60533 47700.00000 0 17195870.475 7823219.838 -17120762.144 10 0 60533 48600.00000 0 14957272.916 7845441.387 -19100066.751 10 0 60533 49500.00000 0 12507110.170 8056803.757 -20707915.426 10 0 60533 50400.00000 0 9908814.312 8477775.512 -21913127.274 10 0 60533 51300.00000 0 7229961.321 9117040.915 -22692368.321 10 0 60533 52200.00000 0 4539659.605 9970997.320 -23030597.661 10 0 60533 53100.00000 0 1905886.821 11023785.586 -22921351.349 10 0 60533 54000.00000 0 -607114.655 12247852.153 -22366859.334 10 0 60533 54900.00000 0 -2941276.093 13605019.068 -21377993.912 10 0 60533 55800.00000 0 -5046874.282 15048017.017 -19974051.304 10 0 60533 56700.00000 0 -6884347.994 16522417.143 -18182371.067 10 0 60533 57600.00000 0 -8425685.044 17968880.764 -16037800.939 10 0 60533 58500.00000 0 -9655323.933 19325632.926 -13582017.596 10 0 60533 59400.00000 0 -10570534.240 20531056.312 -10862716.467 10 0 60533 60300.00000 0 -11181261.730 21526297.081 -7932686.154 10 0 60533 61200.00000 0 -11509446.277 22257773.548 -4848785.275 10 0 60533 62100.00000 0 -11587842.752 22679482.694 -1670841.408 10 0 60533 63000.00000 0 -11458395.616 22755007.772 1539506.700 10 0 60533 63900.00000 0 -11170236.620 22459142.770 4720001.289 10 0 60533 64800.00000 0 -10777390.669 21779065.577 7808969.075 10 0 60533 65700.00000 0 -10336286.966 20715010.283 10746512.968 10 0 60533 66600.00000 0 -9903180.619 19280410.067 13475669.009 10 0 60533 67500.00000 0 -9531593.519 17501504.108 15943506.428 10 0 60533 68400.00000 0 -9269882.348 15416424.175 18102149.877 10 0 60533 69300.00000 0 -9159036.190 13073798.177 19909704.387 10 0 60533 70200.00000 0 -9230796.567 10530927.862 21331065.646 10 0 60533 71100.00000 0 -9506179.198 7851615.424 22338600.276 10 0 60533 72000.00000 0 -9994460.094 5103728.260 22912683.283 10 0 60533 72900.00000 0 -10692669.277 2356601.901 23042082.405 10 0 60533 73800.00000 0 -11585614.318 -321612.179 22724181.877 10 0 60533 74700.00000 0 -12646433.861 -2866544.727 21965040.950 10 0 60533 75600.00000 0 -13837659.163 -5220045.844 20779285.483 10 0 60533 76500.00000 0 -15112740.458 -7332360.543 19189833.917 10 0 60533 77400.00000 0 -16417975.246 -9163952.731 17227462.035 10 0 60533 78300.00000 0 -17694758.540 -10686902.061 14930213.974 10 0 60533 79200.00000 0 -18882061.210 -11885815.700 12342669.976 10 0 60533 80100.00000 0 -19919032.441 -12758217.132 9515084.389 10 0 60533 81000.00000 0 -20747616.655 -13314396.080 6502410.148 10 0 60533 81900.00000 0 -21315074.108 -13576726.301 3363228.560 10 0 60533 82800.00000 0 -21576298.014 -13578480.551 158605.420 10 0 60533 83700.00000 0 -21495829.391 -13362193.526 -3049103.724 10 0 60533 84600.00000 0 -21049483.368 -12977642.850 -6197475.114 10 0 60533 85500.00000 0 -20225517.166 -12479534.613 -9225240.300 99